Tracking 31032 objects as of 13-Jul-2025
HD Live streaming from Space Station
objects crossing your sky now

CZ-6A DEB

Track CZ-6A DEB now!
10-day predictions


NORAD ID: 54538
Int'l Code: 2022-151KN
Perigee: 829.0 km
Apogee: 1,004.0 km
Inclination: 98.8 °
Period: 103.2 minutes
Semi major axis: 7287 km
RCS: Unknown
Launch date: November 11, 2022
Source: People's Republic of China (PRC)
Launch site: Taiyaun Space Center, China (TSC)

Note: This is SATELLITE DEBRIS
Your satellite tracking list
Your tracking list is empty




NASA's NSSDC Master Catalog

Two Line Element Set (TLE):
1 54538U 22151KN  25194.17960872  .00000081  00000-0  85965-4 0  9993
2 54538  98.8148 166.9622 0120062 290.0549  68.7724 13.95520831135568
Source of the keplerian elements: AFSPC